Honolulu, HI

10:51 AM HST on August 21, 2017 (GMT -1000)
Honolulu International

Weather History for PHNL - November, 2012

Change the Weather History Date:

Wednesday, November 7, 2012

  Actual Average Record
Temperature  
Mean Temperature 81 °F 78 °F  
Max Temperature 86 °F 85 °F 89 °F (1988)
Min Temperature 75 °F 72 °F 64 °F (1978)
Degree Days  
Heating Degree Days 0 0  
Month to date heating degree days 0 0  
Since 1 July heating degree days 0 0  
Cooling Degree Days 16 13  
Month to date cooling degree days 87 97  
Year to date cooling degree days 3952 4043  
Growing Degree Days 30 (Base 50)    
Moisture  
Dew Point 65 °F    
Average Humidity 61    
Maximum Humidity 74    
Minimum Humidity 47    
Precipitation  
Precipitation 0.00 in 0.08 in 1.71 in (1948)
Month to date precipitation T 0.59  
Year to date precipitation 8.37 12.03  
Snow  
Snow 0.00 in - - ()
Month to date snowfall 0.0  
Since 1 July snowfall 0.0  
Since 1 September snowfall 0.0  
Snow Depth 0.00 in    
Sea Level Pressure  
Sea Level Pressure 29.99 in    
Wind  
Wind Speed 12 mph (ENE)    
Max Wind Speed 20 mph    
Max Gust Speed 25 mph    
Visibility 10 miles    
Events      
T = Trace of Precipitation, MM = Missing Value Source: NWS Daily Summary

Daily Weather History Graph

Daily Weather History Graph

Search for Another Location

Airport or City:

Trip Planner

Search our weather history database for the weather conditions in past years. The results will help you decide how hot, cold, wet, or windy it might be!

Date:

Astronomy

Nov. 07, 2012 Rise Set
Actual Time 6:38 AM HST 5:52 PM HST
Civil Twilight 6:15 AM HST 6:15 PM HST
Nautical Twilight 5:48 AM HST 6:42 PM HST
Astronomical Twilight 5:22 AM HST 7:08 PM HST
Moon 12:32 AM HST (11/7) 1:23 PM HST (11/7)
Length of Visible Light 12h 00m
Length of Day
11h 14m
Last Quarter, 41% of the Moon is Illuminated
Nov 7
Last Quarter
Nov 13
New
Nov 20
First Quarter
Nov 28
Full
Dec 6
Last Quarter

Hourly Weather History & Observations

Time (HST) Temp. Heat Index Dew Point Humidity Pressure Visibility Wind Dir Wind Speed Gust Speed Precip Events Conditions
12:53 AM 75.9 °F - 64.9 °F 69% 29.97 in 10.0 mi NE 9.2 mph - N/A   Partly Cloudy
1:53 AM 75.0 °F - 64.0 °F 69% 29.96 in 10.0 mi ENE 15.0 mph 20.7 mph N/A   Partly Cloudy
2:53 AM 75.0 °F - 64.0 °F 69% 29.95 in 10.0 mi ENE 10.4 mph - N/A   Partly Cloudy
3:53 AM 75.0 °F - 64.0 °F 69% 29.95 in 10.0 mi ENE 8.1 mph - N/A   Partly Cloudy
4:53 AM 75.9 °F - 64.9 °F 69% 29.95 in 10.0 mi NE 10.4 mph - N/A   Partly Cloudy
5:53 AM 75.0 °F - 64.9 °F 71% 29.97 in 10.0 mi ENE 10.4 mph - N/A   Partly Cloudy
6:53 AM 75.0 °F - 64.9 °F 71% 29.98 in 10.0 mi ENE 15.0 mph 19.6 mph N/A   Partly Cloudy
7:53 AM 78.1 °F - 66.0 °F 66% 30.01 in 10.0 mi ENE 10.4 mph - N/A   Scattered Clouds
8:53 AM 80.1 °F 81.5 °F 63.0 °F 56% 30.01 in 10.0 mi ENE 10.4 mph - N/A   Scattered Clouds
9:53 AM 82.9 °F 84.0 °F 63.0 °F 51% 30.02 in 10.0 mi ENE 11.5 mph 24.2 mph N/A   Scattered Clouds
10:53 AM 82.9 °F 83.3 °F 61.0 °F 47% 30.02 in 10.0 mi ENE 15.0 mph 21.9 mph N/A   Scattered Clouds
11:53 AM 86.0 °F 87.3 °F 64.0 °F 48% 29.99 in 10.0 mi ENE 15.0 mph 23.0 mph N/A   Scattered Clouds
12:53 PM 84.9 °F 86.1 °F 64.0 °F 49% 29.97 in 10.0 mi ENE 15.0 mph 20.7 mph N/A   Scattered Clouds
1:53 PM 84.9 °F 86.6 °F 64.9 °F 51% 29.95 in 10.0 mi ENE 17.3 mph 21.9 mph N/A   Scattered Clouds
2:53 PM 84.0 °F 85.4 °F 64.0 °F 51% 29.95 in 10.0 mi ENE 13.8 mph - N/A   Scattered Clouds
3:53 PM 82.0 °F 84.1 °F 66.0 °F 58% 29.95 in 10.0 mi ENE 15.0 mph - N/A   Scattered Clouds
4:53 PM 80.1 °F 82.1 °F 66.0 °F 62% 29.95 in 10.0 mi ENE 16.1 mph - N/A   Scattered Clouds
5:53 PM 78.1 °F - 64.9 °F 64% 29.97 in 10.0 mi ENE 12.7 mph - N/A   Scattered Clouds
6:53 PM 77.0 °F - 66.0 °F 69% 29.99 in 10.0 mi ENE 11.5 mph - N/A   Partly Cloudy
7:53 PM 77.0 °F - 64.9 °F 66% 30.02 in 10.0 mi ENE 12.7 mph - N/A   Scattered Clouds
8:53 PM 77.0 °F - 66.0 °F 69% 30.03 in 10.0 mi ENE 11.5 mph - N/A   Partly Cloudy
9:53 PM 77.0 °F - 66.0 °F 69% 30.04 in 10.0 mi ENE 10.4 mph - N/A   Partly Cloudy
10:53 PM 75.9 °F - 66.0 °F 71% 30.05 in 10.0 mi NE 8.1 mph - N/A   Scattered Clouds
11:53 PM 75.9 °F - 66.9 °F 74% 30.05 in 10.0 mi ENE 6.9 mph - N/A   Scattered Clouds